Location: Arrodets-la-Barthe
(43.0306°N, 0.2829°E)
Time: 21:54:35
(UTC+00:00)

DUCHIFAT 1 - Visible Passes

Search period start: 17 April 2024 00:00
Search period end: 27 April 2024 00:00
Orbit: 543 x 559 km, 98.1° (Epoch: 17 April)

Date Brightness Start Highest point End Pass type
(mag) Time Alt. Az. Time Alt. Az. Time Alt. Az.
19 Apr ? 04:41:30 10° NNE 04:45:32 83° WNW 04:49:31 10° SSW visible
21 Apr ? 04:33:18 10° NNE 04:37:20 78° ESE 04:41:18 10° S visible
22 Apr ? 04:29:08 10° NNE 04:33:08 69° ESE 04:37:06 10° S visible
23 Apr ? 04:24:55 10° NNE 04:28:53 60° E 04:32:49 10° S visible
24 Apr ? 04:20:40 10° NNE 04:24:35 53° E 04:28:28 10° S visible
25 Apr ? 04:16:21 10° NNE 04:20:13 46° E 04:24:03 10° S visible
26 Apr ? 04:12:00 10° NNE 04:15:48 41° E 04:19:34 10° S visible
